OPS 4682 DEB, 38444

Orbit data source: Space-Track

OPS 4682 DEB, 38444 is space debris in LEO originally from a launch on Sat, 03 Apr 1965 UTC launched from the Air Force Western Test Range (AFWTR). Debris objects in space refer to the collection of defunct objects orbiting the Earth. Examples of debris include non-operational satellites, rocket bodies, and fragments generated from explosions, collisions, or faulty payload assembly.

Loading next visibility...
Identifier
38444, 1965-027EZ
Orbit
LEO
Country
Flag of USUS
Related business
Manufacturer
Unknown
Mission
Spacecraft
Bus & Motor
Unknown
Mass
Unknown
Launch date (UTC)
1965-04-03 (61 years ago)
Launch vehicle
Unknown
Launch site
Air Force Western Test Range (AFWTR)
Object type
Payload
Rocket body
Debris
Shape & HBR
Unknown shape, 0.1 m
Radar Cross Section
Medium (>0.1 m² and <1 m²)

Expand to show TLE details & history
Last TLE update: 1 week ago

TLE from 1 week ago
0 OPS 4682 DEB
1 38444U 65027EZ  26152.03687429  .00000440  00000-0  15121-2 0  9998
2 38444  90.2467   9.6011 0023874 225.4008 134.5165 12.96341448632339
Epoch: 2026-06-01T00:53Z
TLE epoch observation values (Epoch: 2026-06-01T00:53:05.938Z)
Latitude
0.00003°
Longitude
106.7964°
Altitude
1,292.17 km
Speed
7.204 km/s
True Right ascension
00h 38m 24s
True Declination
0° 00' 00"
Sunlit
Object was in daylight at epoch
Visualization orbit readout
Latitude
Unknown
Longitude
Unknown
Altitude
Unknown
Speed
Unknown
Apparent Right ascension
Unknown
Apparent Declination
Unknown
Sunlit
N/A
Visualization observer readout
Local Sidereal Time
18:36:20
Azimuth
Unknown
Elevation
Unknown
Doppler factor
Unknown
Orbital elements
Apogee altitude
1,291.855 km
Perigee altitude
1,255.319 km
Semi-major axis
7,651.724 km
Eccentricity
0.00239
Inclination
90.2467°
RAAN
9.6011°
Arg. of periapsis
225.4008°
True anomaly
134.71117°
Mean anomaly
134.5165°
Eccentric anomaly
134.61387°
Mean motion
3.24268 °/min
Orbital period
111.02 mins
BSTAR
0.0015121
Loading maneuver chart data...
Computing Atmospheric mass density...
Loading historical data...
Loading historical data...
Loading historical data...
Loading historical data...
Loading historical data...
Loading historical data...
Loading historical data...

Documentation

Showing up to 5 results
|